Home   Weather   Nashville   Past weeks
Flag for USA

Past Weather in Nashville, Tennessee, USA — Yesterday and Last 2 Weeks

Now
50 °F

Mostly cloudy.


Feels Like: 45 °F
Forecast: 57 / 38 °F
Wind: 14 mph from North

Location: Nashville International Airport

Current Time: Mar 25, 2019 at 11:52:16 pm

Latest Report: Mar 25, 2019 at 10:53 pm


Visibility: 10 mi

Pressure: 30.17 "Hg

Humidity: 68%

Dew Point: 40 °F

Location of NashvilleLocation

Past Weather in Nashville — Graph

°F

Nashville Temperature Yesterday

Maximum temperature yesterday: 71 °F (at 4:53 pm)
Minimum temperature yesterday: 42 °F (at 2:53 am)
Average temperature yesterday: 57 °F

High & Low Weather Summary for the Past Weeks

 TemperatureHumidityPressure
High75 °F (Mar 13, 3:53 pm)92% (Mar 25, 5:53 am)30.47 "Hg (Mar 25, 5:53 am)
Low29 °F (Mar 16, 6:53 am)14% (Mar 19, 5:53 pm)29.74 "Hg (Mar 14, 5:53 pm)
Average53 °F48%30.17 "Hg
* Reported Mar 10 9:53 pm — Mar 25 9:53 pm, Nashville. Weather by CustomWeather, © 2019

Note: Actual official high and low records may vary slightly from our data, if they occured in-between our weather recording intervals... More about our weather records

Advertising

Nashville Weather History for the Previous 24 Hours

Scroll right to see more
 ConditionsComfort  
Time TempWeatherWind HumidityBarometerVisibility
9:53 pm
Mon, Mar 25
51 °FOvercast.15 mph71%30.15 "Hg10 mi
8:53 pm54 °FOvercast.17 mph72%30.11 "Hg10 mi
7:53 pm54 °FDrizzle. Mostly cloudy.10 mph77%30.08 "Hg10 mi
6:53 pm55 °FMostly cloudy.9 mph74%30.06 "Hg10 mi
5:53 pm57 °FOvercast.12 mph69%30.03 "Hg10 mi
4:53 pm60 °FOvercast.16 mph62%30.00 "Hg10 mi
4:05 pm62 °FPartly sunny.16 mph58%29.99 "Hg10 mi
3:53 pm65 °FPartly sunny.17 mph54%29.97 "Hg10 mi
2:53 pm65 °FBroken clouds.15 mph56%29.94 "Hg10 mi
1:53 pm67 °FBroken clouds.15 mph55%29.95 "Hg10 mi
12:53 pm65 °FCloudy.10 mph61%29.96 "Hg10 mi
12:18 pm64 °FBroken clouds.5 mph70%29.97 "Hg10 mi
11:53 am61 °FMostly cloudy.5 mph75%29.97 "Hg10 mi
11:35 am62 °FBroken clouds.3 mph75%29.98 "Hg10 mi
10:53 am59 °FOvercast.5 mph78%29.97 "Hg10 mi
9:53 am56 °FPartly sunny.5 mph84%29.96 "Hg8 mi
9:29 am55 °FMostly cloudy.N/A83%29.97 "Hg7 mi
8:53 am54 °FCloudy.No wind86%29.95 "Hg8 mi
7:53 am53 °FBroken clouds.8 mph86%29.95 "Hg9 mi
6:53 am51 °FBroken clouds.7 mph89%29.95 "Hg8 mi
5:53 am51 °FMore clouds than sun.5 mph92%29.95 "Hg7 mi
4:53 am53 °FOvercast.No wind86%29.95 "Hg10 mi
4:08 am54 °FRain. Mostly cloudy.6 mph83%29.98 "Hg4 mi
3:53 am55 °FThunderstorms. Mostly cloudy.10 mph77%29.99 "Hg5 mi
3:32 am58 °FThundershowers. Overcast.10 mph60%30.00 "Hg10 mi
2:53 am62 °FMostly cloudy.6 mph41%29.95 "Hg10 mi
1:53 am59 °FOvercast.7 mph48%29.97 "Hg10 mi
12:53 am59 °FOvercast.7 mph51%29.99 "Hg10 mi
11:53 pm
Sun, Mar 24
58 °FPassing clouds.9 mph56%30.01 "Hg10 mi
Weather by CustomWeather, © 2019

See weather overview